Temperature
13 14 14 15 13 11 13 14 14 15 15 17 18 18 17 17 17 18 18 19 18 18 17 17 17 16 16 17 17 17 17 17 17 17 17 17 16 16 16 16 16 16 16 16 16 16 16 16 15
13 13 14 14 12 12 13 13 14 15 16 17 17 17 17 17 18 18 18 18 18 18 17 17 16 16 16 16 17 17 17 17 17 17 17 16 16 16 16 16 16 16 16 16 15 15 15 15 15
13 13 14 11 11 12 14 13 14 15 17 17 16 17 16 17 17 18 18 18 17 17 17 17 16 16 16 16 16 17 17 17 17 16 16 16 16 16 16 16 16 16 16 15 15 15 15 15 15
12 13 13 11 12 12 14 14 14 14 16 17 16 15 16 16 17 17 18 17 17 17 17 16 16 16 16 16 16 16 16 16 16 16 16 16 16 16 16 16 16 15 15 15 15 15 15 15 15
12 13 11 11 12 12 12 13 15 14 15 15 16 14 15 16 16 17 17 17 17 17 16 16 16 16 16 16 16 16 16 16 16 16 16 16 16 16 16 16 15 15 15 15 15 15 15 15 14
12 11 10 11 12 12 12 14 15 14 14 15 15 14 15 16 16 16 16 16 16 16 16 16 16 16 16 16 16 16 16 16 16 16 16 16 16 16 15 15 15 15 15 15 15 15 15 14 14
10 9 10 11 12 12 13 15 14 13 13 14 15 14 14 15 15 15 15 15 15 15 15 15 15 15 15 15 15 16 16 16 16 16 16 15 15 15 15 15 15 15 15 15 15 14 14 14 14
10 9 10 10 11 12 13 14 15 15 14 15 15 13 14 15 15 15 15 15 14 14 15 15 15 15 15 15 15 15 15 15 15 15 15 15 15 15 15 15 15 15 15 14 14 14 14 14 14
10 9 9 10 11 12 13 13 14 14 14 14 14 14 14 14 14 14 14 14 14 14 14 15 15 15 15 15 15 15 15 15 15 15 15 15 15 15 15 15 15 14 14 14 14 14 14 14 14
9 8 10 11 11 12 13 13 13 13 12 12 13 14 14 14 13 13 13 13 13 14 14 14 14 14 14 15 15 15 15 15 15 15 15 15 14 14 14 14 14 14 14 14 14 14 14 14 13
8 8 10 11 11 12 12 12 13 12 11 12 13 13 13 13 13 13 13 13 13 13 14 14 14 14 14 14 14 14 14 14 14 14 14 14 14 14 14 14 14 14 14 14 14 13 13 13 13
8 8 9 10 11 11 11 12 11 11 12 13 13 13 13 12 12 12 12 13 13 13 13 14 14 14 14 14 14 14 14 14 14 14 14 14 14 14 14 14 14 14 14 14 13 13 13 13 13
7 8 9 10 10 10 10 10 10 10 12 13 12 12 12 12 12 12 12 12 12 13 13 13 13 13 13 14 14 14 14 14 14 14 14 14 14 14 14 14 14 13 13 13 13 13 13 12 12
7 8 8 9 10 10 10 9 9 10 11 11 12 11 12 12 11 11 12 12 12 12 12 13 13 13 13 13 13 13 13 13 13 13 13 13 13 13 13 13 13 13 13 13 13 12 12 12 12
8 7 7 8 9 9 10 9 8 9 10 10 11 11 11 11 11 11 11 12 12 12 12 12 12 13 13 13 13 13 13 13 13 13 13 13 13 13 13 13 13 13 13 12 12 12 12 12 12
7 6 6 7 8 9 9 8 8 9 10 9 10 10 10 11 11 11 11 11 12 12 12 12 12 12 12 12 12 12 13 13 12 12 12 12 12 12 12 12 12 12 12 12 12 12 11 11 11
5 5 6 7 8 8 8 7 8 9 9 9 9 10 10 10 10 11 11 11 11 12 11 12 12 12 12 12 12 12 12 12 12 12 12 12 12 12 12 12 12 12 12 12 11 11 11 11 11
5 5 5 6 7 7 7 7 7 8 8 8 8 9 9 10 10 10 11 11 11 11 11 11 11 11 11 11 12 11 12 12 12 12 12 11 11 11 12 12 11 11 11 11 11 11 11 10 10
5 5 5 6 7 7 6 6 6 7 7 7 7 8 8 9 9 10 10 10 10 11 11 11 11 11 11 11 11 11 11 11 11 11 11 11 11 11 11 11 11 11 11 11 11 10 10 10 10
5 5 5 5 6 7 6 6 6 6 6 7 7 7 8 8 9 9 10 10 10 10 10 10 10 11 11 11 11 11 11 11 11 11 11 11 11 11 11 11 11 11 11 10 10 10 10 9 9
5 5 5 5 5 6 6 6 6 6 6 6 7 7 7 8 8 8 9 9 10 10 10 10 10 10 10 10 10 10 10 10 10 10 10 10 10 10 10 10 10 10 10 10 10 9 9 9 9
4 5 5 5 4 4 5 5 5 5 5 5 6 6 7 7 8 8 8 9 9 9 9 10 10 10 10 10 10 10 10 10 10 10 10 10 10 10 10 10 10 10 10 10 9 9 9 9 9
4 5 5 4 4 3 4 4 4 4 5 5 5 5 6 6 7 7 8 8 9 9 9 9 9 9 9 9 9 9 9 10 10 10 10 10 9 9 9 9 9 9 9 9 9 9 9 8 8
4 4 4 3 3 3 3 4 4 4 4 5 4 5 5 6 6 7 7 8 8 8 8 9 9 9 9 9 9 9 9 9 9 9 9 9 9 9 9 9 9 9 9 9 8 8 8 8 8
3 3 3 3 3 3 3 4 4 4 4 4 4 4 4 5 6 6 7 7 7 8 8 8 8 8 8 8 8 8 8 9 9 9 9 9 9 9 9 9 9 8 8 8 8 8 8 8 8
3 3 3 3 3 3 3 3 3 3 3 3 3 3 4 4 5 5 6 6 7 7 7 7 7 8 8 8 8 8 8 8 8 8 8 9 9 9 8 8 8 8 8 8 7 7 7 7 7
2 2 2 2 1 2 2 2 3 3 2 2 2 2 3 3 4 5 5 5 6 6 6 7 7 7 7 7 7 7 7 8 8 8 8 8 8 8 8 8 8 7 7 7 7 7 7 7 7
2 2 1 1 2 2 2 2 3 2 2 1 1 1 2 3 3 4 4 5 5 6 6 6 6 6 6 6 7 7 7 7 7 7 7 7 7 7 7 7 7 7 7 7 6 6 6 6 6
1 1 1 0 1 2 2 3 2 2 1 1 1 1 2 2 3 3 4 4 4 5 5 5 5 6 6 6 6 6 6 7 7 7 7 7 7 7 7 7 6 6 6 6 6 6 6 6 6
1 1 0 1 0 0 0 2 2 1 1 1 0 1 1 1 2 3 3 3 4 4 4 5 5 5 5 5 6 6 6 6 6 6 6 6 6 6 6 6 6 6 6 6 5 5 5 5 5
Wind_Speed
6 3 2 3 4 2 6 6 4 3 4 3 2 4 7 7 5 4 1 7 11 12 14 17 18 18 18 18 17 17 16 16 15 15 15 14 14 14 14 14 14 14 13 13 13 13 12 12 12
2 1 3 3 4 5 7 6 7 6 4 2 2 2 3 2 1 2 3 6 11 13 14 16 19 18 18 18 17 17 16 16 15 15 14 14 14 14 14 13 13 13 13 13 13 12 12 12 11
1 1 3 3 5 9 7 5 8 4 2 2 2 1 2 2 1 3 3 9 11 11 13 16 19 18 18 17 17 16 15 15 15 14 14 13 13 13 13 13 13 13 12 12 12 12 11 11 11
1 2 2 3 10 9 6 3 4 2 1 1 3 1 1 1 2 2 6 10 12 10 12 16 18 18 18 17 16 16 15 14 14 14 13 13 13 13 13 12 12 12 12 11 11 11 11 10 10
2 2 3 6 12 7 5 4 2 2 2 1 3 3 1 4 1 6 9 10 12 10 12 15 18 17 17 16 16 15 15 14 14 13 13 13 13 12 12 11 11 11 11 11 10 10 10 10 10
1 2 5 10 11 6 5 4 2 1 1 1 3 3 1 2 4 7 9 9 9 10 10 14 17 17 16 16 15 15 14 14 13 13 12 12 12 12 11 11 11 10 10 10 10 9 9 9 9
2 3 7 8 8 6 5 4 5 4 3 3 3 3 0 1 3 7 8 8 8 9 9 10 13 15 15 15 15 14 14 13 13 13 12 11 11 11 10 10 10 10 10 10 10 10 10 9 9
3 2 5 7 7 7 2 2 2 4 4 2 3 5 3 3 6 9 9 8 7 7 7 8 10 11 12 12 14 14 13 13 13 12 12 12 11 11 10 9 9 9 9 10 10 10 10 10 10
2 3 8 8 7 4 1 1 1 0 3 1 1 2 2 7 10 11 9 7 7 7 6 7 8 9 10 11 12 13 13 12 12 12 12 12 11 10 9 10 10 9 9 9 9 9 9 10 10
3 7 10 5 3 3 2 2 2 2 1 1 1 2 5 10 11 11 10 10 9 8 6 6 7 7 8 8 10 10 10 11 11 11 12 11 11 10 9 10 10 9 9 9 9 9 9 9 9
3 7 6 6 5 4 2 2 1 4 3 5 4 6 9 10 10 10 9 9 9 8 7 6 6 7 8 7 8 8 8 9 10 11 11 11 10 9 9 9 9 9 9 9 8 9 8 8 8
3 5 5 6 5 4 4 2 1 1 5 2 4 9 11 12 11 10 9 8 7 6 5 5 5 6 7 7 7 7 7 7 7 9 11 10 7 6 6 6 7 7 7 7 7 6 7 7 7
4 4 5 6 5 4 3 3 2 4 4 1 5 8 10 11 9 7 7 7 6 6 5 5 5 6 6 6 6 6 6 6 7 8 9 10 7 5 6 5 6 6 6 6 5 5 5 5 5
3 3 4 5 5 4 2 4 3 5 2 3 6 7 8 8 7 6 6 6 6 6 5 4 5 5 6 5 5 5 6 7 7 7 9 9 9 7 6 5 5 5 5 5 5 5 4 4 4
1 2 5 4 4 3 1 4 4 5 0 2 4 5 5 5 6 6 7 6 7 6 5 5 5 5 5 5 5 5 6 7 6 7 8 9 9 8 7 5 4 4 5 6 6 5 5 4 4
0 1 3 4 2 2 3 6 5 3 2 2 3 4 4 3 4 4 4 4 5 5 5 5 4 4 4 5 4 4 5 6 5 7 8 8 9 9 7 5 3 5 6 5 4 3 3 3 3
1 3 4 4 2 1 4 4 4 2 2 2 2 3 3 2 0 1 2 4 5 6 5 5 4 4 4 4 5 5 5 5 5 5 6 7 8 9 8 5 4 6 5 4 3 3 2 2 2
4 3 3 4 3 1 2 3 3 2 1 2 1 1 2 2 2 1 1 2 4 4 4 4 4 4 4 4 4 3 4 3 3 4 5 7 8 8 8 6 5 6 4 3 3 3 3 2 2
3 2 3 4 3 1 3 4 4 2 1 1 1 1 1 2 0 1 1 1 3 3 4 4 4 4 4 3 3 3 2 2 2 2 4 6 7 8 7 5 5 4 3 3 4 3 3 3 2
2 2 2 3 2 1 2 4 4 2 3 3 3 2 2 1 2 2 2 1 2 3 4 4 5 5 4 3 2 2 3 2 2 2 3 4 6 7 7 6 4 4 4 4 3 3 2 2 2
3 4 2 2 3 2 1 4 4 2 2 2 2 1 1 1 1 1 2 1 1 2 3 4 4 4 3 3 3 3 3 2 2 1 1 2 4 6 6 6 5 4 4 4 4 4 4 3 1
4 2 2 2 1 1 0 3 5 3 2 3 3 2 2 1 1 1 1 1 0 1 1 2 3 3 3 4 4 5 4 3 3 3 3 2 4 5 5 6 6 5 4 4 4 3 3 4 2
3 1 0 1 1 1 1 1 6 2 4 5 4 3 2 1 1 1 1 1 1 0 0 1 2 3 3 4 5 5 3 2 2 3 3 3 2 3 5 5 5 4 3 3 4 3 3 3 3
1 2 3 2 2 2 3 3 5 3 5 5 3 2 2 2 1 1 2 1 2 2 1 1 2 2 2 3 3 4 4 4 4 4 4 3 2 2 3 5 4 4 3 4 3 3 4 3 3
3 4 2 1 0 4 2 3 6 4 3 3 3 2 2 1 1 2 3 3 2 2 2 1 2 1 1 2 2 3 3 4 5 5 5 4 3 3 4 4 4 4 4 4 4 3 3 3 4
1 3 3 2 3 2 0 5 5 2 2 2 1 1 1 2 2 2 2 1 1 1 1 1 1 1 1 1 1 1 2 2 2 4 5 5 5 4 4 4 4 4 5 5 4 3 3 3 3
1 1 2 3 1 0 4 5 6 3 4 4 3 3 3 3 3 2 2 2 1 1 1 1 1 1 0 1 1 1 2 2 3 3 3 3 3 3 4 5 4 4 4 5 5 3 3 3 3
2 3 3 3 2 2 4 4 3 5 5 4 4 4 4 4 4 3 3 3 2 2 2 1 1 1 1 1 1 1 1 2 2 3 3 4 3 4 5 5 4 4 4 4 4 3 3 3 2
2 2 2 2 2 3 2 5 2 4 4 4 4 3 3 4 4 3 3 3 3 2 2 1 1 1 0 0 0 0 1 1 1 2 3 3 3 5 5 5 5 5 5 4 4 4 4 4 3
0 1 2 2 2 2 2 5 3 3 3 2 4 5 5 4 4 4 3 3 3 3 3 3 2 1 1 0 0 0 0 0 0 1 2 3 4 4 5 5 5 5 5 5 5 4 4 4 3
Wind_Direction
326 358 61 58 68 94 227 232 220 223 214 208 170 158 164 166 170 199 79 143 137 145 151 149 147 144 140 135 132 129 128 126 124 122 120 117 114 111 108 104 100 97 93 91 90 88 86 85 83
319 32 62 76 140 206 241 225 219 217 196 136 97 114 132 204 226 126 134 146 140 143 146 147 147 144 140 136 133 131 130 129 127 124 121 118 115 112 108 105 101 97 93 90 88 87 85 83 82
317 67 110 124 184 206 221 212 217 232 201 144 124 96 158 199 186 170 163 145 136 139 142 146 146 144 141 138 135 133 131 129 128 126 123 119 117 113 109 105 103 100 96 91 87 85 84 83 80
68 68 78 180 223 222 217 213 195 208 230 155 138 120 280 314 224 177 140 140 137 137 138 145 146 145 142 140 137 135 133 132 130 127 125 122 119 115 111 107 105 102 99 95 90 86 85 84 80
58 119 178 225 234 235 236 250 197 184 188 170 146 154 295 337 84 127 134 138 140 138 137 144 145 145 143 141 139 137 135 134 132 129 126 125 122 118 115 111 109 105 101 96 93 89 87 84 78
86 134 192 227 234 240 239 227 202 205 219 137 140 141 245 359 105 130 133 134 133 135 134 143 146 145 144 142 141 139 139 137 135 131 128 127 125 121 117 114 111 108 103 99 94 90 87 83 79
163 177 213 225 236 244 239 196 188 195 204 214 168 134 245 38 123 129 126 124 122 126 129 134 141 143 144 144 143 141 140 139 136 133 130 126 126 123 118 115 113 110 102 98 93 87 85 83 82
163 168 225 230 226 242 236 187 193 183 202 177 142 150 196 196 137 125 120 120 121 122 126 127 130 134 136 140 144 142 141 139 136 131 125 121 118 116 113 109 107 106 101 97 93 89 86 83 84
137 204 227 224 218 243 214 198 308 75 124 121 138 204 215 142 135 129 126 124 131 131 130 128 129 129 132 137 143 140 138 136 132 126 123 116 108 104 103 104 104 104 102 98 94 91 88 84 81
165 218 234 244 237 255 259 214 207 123 150 242 13 21 115 132 141 144 149 153 154 152 145 138 138 134 131 133 132 129 129 129 126 125 121 114 109 105 103 101 100 100 100 97 91 87 84 80 76
191 223 250 274 287 294 290 298 252 152 219 224 191 153 140 141 147 151 157 160 162 157 150 145 141 136 133 128 129 126 127 125 124 128 126 120 110 105 100 94 91 90 88 84 83 76 74 76 76
213 252 258 276 305 311 296 306 360 222 247 264 172 155 153 157 165 167 166 162 149 146 147 144 138 136 134 131 133 134 132 130 130 135 135 127 114 106 101 94 91 88 87 83 78 77 76 76 77
239 259 269 285 304 306 321 310 277 297 304 74 123 143 159 166 168 166 159 154 149 152 148 148 141 138 135 132 133 134 135 137 139 139 141 139 129 123 113 101 96 93 94 91 84 82 78 74 71
232 258 286 304 302 307 297 301 311 297 340 110 136 156 168 171 166 153 151 157 160 163 159 151 151 142 138 136 135 138 136 139 140 143 148 145 138 131 124 113 103 97 99 100 97 93 89 80 78
235 278 302 296 282 277 286 312 284 280 235 138 159 169 170 171 169 173 174 175 171 168 160 156 152 142 142 137 134 136 138 141 140 144 149 147 142 138 131 124 113 109 111 104 95 85 80 79 72
122 226 262 275 249 260 154 251 288 291 164 170 178 177 176 180 183 182 174 174 168 161 161 159 152 145 144 137 129 124 135 138 140 144 147 148 146 143 132 126 123 122 115 105 103 93 78 68 68
168 223 240 282 256 209 172 234 292 276 165 183 191 190 184 172 177 202 182 181 175 169 164 160 145 149 139 127 124 117 122 128 133 140 143 148 147 146 137 132 127 125 109 102 105 89 95 87 65
210 217 226 248 288 237 197 237 291 317 165 209 212 197 173 176 225 249 210 180 171 163 160 156 139 138 127 115 109 106 103 106 115 128 144 150 148 148 139 129 127 124 114 105 100 99 76 88 83
205 201 240 264 293 255 215 250 271 272 296 274 273 227 212 224 337 48 40 148 141 147 159 165 152 151 144 141 145 149 152 143 136 125 140 146 145 148 143 136 132 129 131 131 124 112 92 63 58
208 213 258 307 345 246 240 266 269 254 239 234 228 225 238 311 24 35 21 100 150 164 172 179 174 170 169 165 162 163 148 145 143 123 128 146 149 152 155 148 147 140 135 127 126 120 105 73 50
232 215 225 273 357 6 326 295 261 257 232 260 256 232 227 210 241 348 8 24 134 172 185 188 184 176 171 146 124 106 93 91 118 136 170 161 158 154 151 151 146 149 150 154 153 142 129 133 57
252 243 237 264 22 309 121 269 278 251 252 259 264 266 264 267 274 298 331 352 212 231 194 166 170 168 169 155 157 159 172 179 191 178 179 169 158 156 153 150 147 151 153 157 162 150 142 142 147
238 260 219 233 175 331 357 197 286 308 259 251 252 256 268 272 253 256 267 239 287 341 130 146 152 155 163 171 172 172 176 170 145 147 159 166 162 160 158 155 150 149 150 152 149 143 142 146 150
230 57 52 45 84 247 230 190 277 248 238 252 252 264 291 319 350 351 336 21 18 30 58 105 132 145 155 167 174 175 174 162 155 165 172 174 179 175 167 158 152 153 149 153 156 151 150 145 137
86 95 64 31 286 246 211 199 252 257 252 238 248 271 296 330 15 11 4 13 5 19 26 68 124 128 141 167 183 184 182 176 181 181 180 178 182 192 192 171 163 158 153 150 144 144 150 148 143
195 130 140 190 221 289 259 232 258 303 334 339 330 317 353 3 3 356 335 343 347 347 2 59 133 147 135 168 210 202 181 178 198 193 184 189 195 193 179 171 164 158 150 145 139 141 150 142 137
116 135 148 130 78 277 264 285 303 359 357 359 1 5 349 351 354 349 348 354 359 343 299 231 187 153 180 214 193 196 195 187 197 197 187 188 185 169 161 160 157 150 146 143 142 153 153 144 141
117 140 96 109 131 251 280 272 280 309 315 324 337 341 343 351 350 352 351 349 348 329 308 283 208 181 201 196 200 235 236 219 199 186 186 186 176 160 155 154 153 145 139 140 142 147 147 141 142
31 65 97 122 152 170 256 276 263 286 297 297 309 325 333 339 340 341 340 340 354 6 14 2 2 21 26 272 218 244 257 256 201 189 189 182 169 160 161 158 154 151 148 144 146 153 155 150 141
94 157 137 151 233 191 196 271 340 336 334 335 337 343 345 346 348 348 350 358 10 13 11 4 356 355 320 275 182 187 221 187 148 193 187 170 169 162 157 151 150 152 149 148 152 156 159 159 157
Height
1496 1497 1499 1502 1505 1513 1511 1504 1499 1496 1495 1493 1493 1495 1496 1498 1502 1505 1498 1498 1501 1505 1508 1512 1515 1518 1520 1523 1525 1527 1528 1530 1531 1533 1534 1535 1536 1537 1538 1539 1540 1540 1541 1541 1542 1542 1542 1542 1543
1495 1497 1500 1501 1508 1515 1507 1498 1496 1492 1491 1491 1492 1493 1494 1494 1495 1495 1495 1498 1501 1505 1508 1511 1515 1518 1520 1523 1525 1527 1529 1530 1532 1533 1535 1536 1537 1538 1539 1539 1540 1541 1541 1542 1542 1542 1543 1543 1543
1494 1496 1499 1500 1505 1503 1497 1492 1490 1488 1489 1490 1491 1492 1493 1493 1494 1494 1495 1498 1502 1505 1508 1512 1515 1518 1520 1523 1525 1527 1529 1531 1532 1534 1535 1536 1537 1538 1539 1540 1540 1541 1541 1542 1542 1543 1543 1543 1543
1494 1496 1497 1501 1498 1492 1488 1486 1486 1487 1488 1489 1490 1492 1492 1493 1493 1494 1496 1498 1502 1505 1508 1512 1515 1518 1520 1523 1525 1527 1529 1531 1532 1534 1535 1536 1537 1538 1539 1540 1540 1541 1542 1542 1542 1543 1543 1543 1543
1493 1494 1498 1498 1492 1488 1486 1485 1485 1486 1487 1487 1489 1490 1490 1492 1493 1494 1496 1499 1502 1505 1508 1512 1515 1518 1520 1523 1525 1527 1529 1531 1532 1534 1535 1536 1537 1538 1539 1540 1541 1541 1542 1542 1542 1543 1543 1543 1543
1492 1491 1497 1494 1488 1485 1484 1484 1485 1485 1486 1487 1488 1489 1490 1492 1492 1494 1496 1499 1503 1505 1508 1512 1515 1517 1520 1523 1525 1527 1529 1530 1532 1534 1535 1536 1537 1538 1539 1540 1541 1541 1542 1542 1542 1542 1543 1543 1543
1490 1491 1491 1489 1487 1485 1482 1482 1483 1484 1485 1486 1487 1489 1489 1491 1492 1494 1497 1500 1503 1506 1508 1511 1514 1517 1520 1522 1524 1527 1528 1530 1532 1533 1535 1536 1537 1538 1539 1540 1540 1541 1541 1542 1542 1542 1542 1542 1542
1487 1490 1489 1488 1486 1483 1481 1481 1481 1483 1484 1486 1487 1488 1489 1490 1492 1494 1497 1500 1503 1506 1509 1511 1514 1516 1519 1521 1524 1526 1528 1530 1531 1533 1534 1535 1537 1538 1539 1539 1540 1541 1541 1542 1542 1542 1542 1542 1542
1486 1491 1487 1484 1484 1482 1480 1481 1482 1482 1483 1484 1486 1487 1488 1489 1491 1494 1497 1500 1503 1505 1508 1511 1513 1516 1518 1521 1523 1525 1527 1529 1531 1532 1533 1535 1536 1537 1538 1539 1540 1540 1541 1541 1541 1541 1541 1541 1541
1484 1487 1482 1481 1481 1480 1479 1479 1481 1482 1482 1483 1484 1485 1487 1488 1490 1492 1494 1497 1500 1503 1506 1509 1512 1514 1517 1519 1522 1524 1526 1528 1529 1531 1532 1534 1535 1536 1537 1538 1539 1539 1540 1540 1541 1541 1541 1541 1541
1482 1483 1481 1481 1480 1479 1479 1479 1480 1480 1482 1481 1481 1483 1485 1487 1489 1491 1493 1496 1499 1502 1505 1508 1510 1513 1515 1518 1520 1522 1524 1526 1528 1530 1531 1533 1534 1535 1536 1537 1538 1539 1539 1539 1540 1540 1540 1540 1540
1482 1481 1481 1480 1479 1479 1479 1479 1480 1480 1480 1480 1481 1482 1483 1485 1488 1490 1492 1495 1498 1501 1503 1506 1509 1511 1514 1516 1518 1520 1522 1524 1526 1528 1530 1531 1533 1534 1535 1536 1537 1537 1538 1538 1539 1539 1539 1540 1540
1481 1480 1480 1479 1479 1479 1479 1479 1480 1479 1479 1479 1480 1482 1483 1485 1487 1490 1493 1495 1497 1500 1502 1505 1507 1510 1512 1514 1517 1519 1521 1523 1525 1527 1528 1530 1531 1533 1534 1535 1536 1536 1537 1537 1538 1538 1539 1539 1539
1479 1479 1479 1478 1477 1478 1479 1479 1479 1479 1479 1479 1479 1481 1483 1484 1487 1489 1491 1493 1496 1499 1501 1503 1506 1508 1511 1513 1515 1517 1519 1521 1523 1525 1527 1529 1530 1531 1532 1533 1534 1535 1536 1536 1537 1537 1537 1538 1538
1478 1480 1478 1478 1477 1478 1478 1480 1480 1479 1479 1479 1479 1481 1483 1484 1486 1488 1490 1492 1495 1498 1500 1502 1504 1507 1509 1511 1513 1515 1517 1519 1521 1523 1525 1527 1528 1530 1531 1532 1533 1533 1534 1535 1535 1536 1536 1537 1537
1478 1481 1482 1478 1477 1477 1481 1482 1479 1479 1478 1478 1479 1481 1482 1484 1486 1488 1490 1492 1494 1496 1499 1501 1503 1505 1507 1509 1511 1513 1515 1517 1519 1521 1523 1525 1526 1528 1529 1530 1531 1532 1533 1533 1534 1534 1535 1535 1535
1482 1484 1482 1479 1476 1476 1479 1480 1479 1478 1478 1478 1479 1480 1481 1483 1485 1487 1489 1491 1493 1495 1497 1499 1501 1503 1505 1507 1510 1512 1514 1515 1517 1519 1521 1523 1524 1526 1527 1528 1529 1530 1531 1532 1532 1533 1533 1534 1534
1483 1484 1482 1481 1477 1477 1478 1480 1479 1478 1478 1478 1479 1479 1481 1482 1483 1486 1487 1490 1492 1494 1496 1497 1499 1501 1503 1505 1507 1509 1511 1513 1515 1516 1518 1520 1522 1524 1525 1526 1527 1528 1529 1530 1530 1531 1532 1532 1532
1480 1482 1482 1480 1477 1478 1479 1479 1479 1478 1479 1478 1478 1479 1480 1481 1483 1485 1486 1488 1490 1492 1494 1495 1497 1499 1501 1502 1504 1506 1508 1510 1511 1513 1516 1517 1519 1521 1523 1524 1525 1526 1527 1528 1529 1530 1530 1530 1531
1480 1481 1482 1480 1477 1478 1479 1479 1478 1477 1478 1479 1478 1478 1479 1480 1481 1482 1484 1485 1487 1489 1491 1493 1495 1497 1498 1500 1502 1504 1505 1507 1509 1511 1512 1515 1517 1518 1520 1522 1523 1524 1525 1526 1527 1528 1528 1528 1529
1479 1481 1482 1482 1480 1479 1480 1480 1478 1476 1477 1477 1477 1477 1478 1478 1479 1480 1481 1483 1484 1486 1488 1490 1492 1494 1496 1498 1499 1501 1503 1505 1507 1508 1510 1512 1514 1516 1518 1519 1520 1522 1523 1523 1525 1526 1526 1527 1527
1480 1479 1480 1481 1484 1486 1484 1486 1478 1476 1476 1475 1475 1475 1476 1477 1478 1479 1479 1480 1481 1483 1486 1487 1489 1491 1493 1495 1497 1498 1500 1501 1503 1505 1508 1509 1512 1514 1515 1517 1518 1519 1520 1521 1522 1524 1524 1525 1525
1481 1479 1480 1482 1485 1489 1487 1490 1481 1476 1475 1474 1474 1474 1474 1475 1476 1476 1477 1478 1480 1481 1483 1485 1486 1488 1490 1492 1494 1495 1497 1499 1501 1503 1506 1508 1509 1511 1513 1515 1516 1517 1518 1519 1520 1521 1522 1523 1523
1480 1481 1482 1485 1488 1491 1488 1488 1483 1478 1473 1471 1472 1472 1472 1473 1473 1474 1475 1477 1478 1479 1481 1482 1484 1486 1487 1489 1491 1492 1494 1496 1498 1500 1503 1505 1507 1508 1510 1512 1513 1515 1516 1517 1518 1519 1520 1521 1521
1482 1487 1491 1491 1493 1491 1486 1486 1481 1473 1472 1471 1471 1471 1471 1471 1471 1472 1473 1473 1475 1476 1478 1479 1481 1482 1484 1486 1488 1490 1492 1493 1496 1498 1500 1502 1504 1505 1507 1509 1511 1512 1514 1515 1516 1517 1518 1519 1519
1485 1487 1494 1494 1493 1492 1488 1485 1478 1474 1472 1471 1470 1470 1470 1469 1469 1470 1471 1472 1473 1474 1475 1477 1478 1480 1481 1483 1485 1487 1489 1491 1493 1495 1497 1499 1501 1502 1504 1506 1508 1510 1511 1512 1514 1515 1516 1516 1517
1487 1490 1491 1497 1500 1499 1492 1486 1477 1473 1472 1471 1470 1469 1469 1468 1468 1469 1469 1470 1471 1472 1473 1475 1476 1477 1479 1480 1482 1484 1486 1488 1490 1492 1493 1496 1498 1499 1501 1503 1505 1506 1508 1510 1511 1512 1513 1514 1514
1488 1490 1494 1498 1499 1496 1491 1488 1482 1477 1474 1472 1471 1470 1468 1468 1468 1468 1468 1468 1469 1470 1471 1473 1474 1475 1477 1478 1480 1481 1483 1485 1487 1489 1490 1492 1495 1497 1498 1500 1502 1503 1505 1507 1508 1510 1511 1511 1512
1491 1492 1494 1499 1498 1499 1497 1486 1478 1476 1474 1474 1472 1470 1469 1468 1467 1467 1467 1467 1467 1468 1469 1471 1472 1473 1474 1476 1477 1479 1480 1482 1483 1485 1487 1489 1491 1494 1495 1497 1499 1500 1502 1504 1505 1507 1508 1509 1509
1493 1494 1496 1498 1501 1502 1502 1490 1478 1476 1474 1473 1472 1471 1469 1468 1467 1467 1467 1466 1466 1466 1467 1468 1470 1471 1472 1473 1474 1476 1477 1479 1480 1482 1484 1486 1488 1490 1492 1494 1496 1498 1499 1501 1503 1504 1505 1506 1506